Location: Olsztyn
(53.7767°N, 20.4765°E)
Time: 11:00:23
(UTC+01:00)

Vanguard 1 Rocket - Visible Passes

Search period start: 19 January 2022 00:00
Search period end: 29 January 2022 00:00
Orbit: 651 x 4224 km, 34.3° (Epoch: 18 January)

Date Brightness Start Highest point End Pass type
(mag) Time Alt. Az. Time Alt. Az. Time Alt. Az.
19 Jan 10.1 16:32:15 10° WSW 16:41:58 24° SSW 16:48:13 10° SSE visible
20 Jan 10.2 17:48:46 10° WSW 17:54:47 16° SSW 17:59:15 10° S visible
21 Jan 10.2 16:33:56 10° WSW 16:44:05 24° SSW 16:50:37 10° SSE visible
22 Jan 10.5 17:51:07 10° WSW 17:56:44 15° SW 18:01:02 10° S visible
23 Jan 10.4 16:35:42 10° WSW 16:46:06 23° SSW 16:52:52 10° SSE visible
24 Jan 10.7 17:53:50 10° WSW 17:58:34 13° SW 18:02:22 10° SSW visible
25 Jan 10.6 16:37:35 10° WSW 16:48:00 22° SW 16:54:54 10° SSE visible
26 Jan 10.9 17:57:19 10° WSW 18:00:15 11° SW 18:02:49 10° SW visible
27 Jan 10.8 16:39:36 10° WSW 16:49:46 20° SW 16:56:44 10° S visible
